Regional Weather Roundup
Issued by NWS Cleveland, OH

Home | Current Version | Previous Version | Graphics & Text | Print | Product List | Glossary On
Versions: 1 2 3 4 5 6 7 8 9 10 11 12 13 14 15 16 17 18 19 20 21 22 23 24 25 26 27 28 29 30 31 32 33 34 35 36 37 38 39 40 41 42 43 44 45 46 47 48 49 50
000
ASUS41 KCLE 170510
RWRCLE
OHIO REGIONAL WEATHER ROUNDUP
NATIONAL WEATHER SERVICE WILMINGTON, OH
100 AM EDT TUE OCT 17 2017

NOTE: "FAIR" INDICATES FEW OR NO CLOUDS BELOW 12,000 FEET WITH NO
SIGNIFICANT WEATHER AND/OR OBSTRUCTIONS TO VISIBILITY.

OHZ001>008-015>018-024>027-034-035-043-044-170600-
   NORTHWEST OHIO

CITY           SKY/WX    TMP DP  RH WIND       PRES   REMARKS
DEFIANCE       FAIR      42  38  85 CALM      30.27S
FINDLAY        FAIR      42  36  79 S8        30.27S
TOLEDO EXPRESS FAIR      44  41  89 S6        30.26S
TOLEDO EXEC    FAIR      43  38  82 S6        30.27F
LIMA           FAIR      44  40  85 S7        30.28F
$$

OHZ009>014-019>023-028>033-038-089-170600-
   NORTHEAST OHIO

CITY           SKY/WX    TMP DP  RH WIND       PRES   REMARKS
CLE-HOPKINS    FAIR      41  36  82 S5        30.30S
CLE-LAKEFRONT  FAIR      46  35  65 SE10      30.27S
CUY CO. ARPT   NOT AVBL
LORAIN-ELYRIA    N/A    N/A N/A N/A MISG      30.29S
ASHTABULA      FAIR      39  34  82 CALM      30.29S
AKRON-CANTON   FAIR      43  34  70 S3        30.29S
WOOSTER        FAIR      35  34  96 CALM      30.30S
MANSFIELD      FAIR      39  36  89 S7        30.29S
YOUNGSTOWN     FAIR      38  32  79 CALM      30.28S
$$

OHZ042-051>053-060>062-070>072-077>081-170600-
  SOUTHWEST OHIO

CITY           SKY/WX    TMP DP  RH WIND       PRES   REMARKS
CINC-COVINGTON FAIR      42  40  92 CALM      30.31F
CINC-LUNKEN    FAIR      42  41  96 CALM      30.34S
HAMILTON       FAIR      39  38  96 CALM      30.33S
DAYTON         FAIR      45  37  73 S5        30.31F
WRIGHT-PAT AFB CLEAR     42  41  97 CALM      30.30F
DAYTON GENERAL FAIR      44  38  79 CALM      30.30F
WILMINGTON     FAIR      40  39  97 CALM      30.31F
$$

OHZ036-037-039>041-045>050-054>059-063>069-073>076-082>088-170600-
  CENTRAL AND SOUTHEAST OHIO

CITY           SKY/WX    TMP DP  RH WIND       PRES   REMARKS
COLUMBUS       FAIR      44  41  89 CALM      30.30F
OSU AIRPORT    FAIR      44  41  89 CALM      30.30F
BOLTON FIELD   FAIR      39  39  99 CALM      30.31S
RICKENBACK AFB FAIR      41  40  95 CALM      30.31S
NEWARK         FAIR      40  36  86 CALM      30.30F
MARION         FAIR      40  36  86 S6        30.30S
LANCASTER      FAIR      38  37  97 CALM      30.31F
ZANESVILLE     FAIR      40  37  89 CALM      30.31F
NEW PHILLY     FAIR      38  36  92 CALM      30.31F
$$




USA.gov is the U.S. government's official web portal to all federal, state and local government web resources and services.